Location: Newark
(48.4472°N, 1.4892°E)
Time: 13:57:15
(UTC+00:00)

Transit 4A - Pass Details

Date: 25 January 2021
Orbit: 866 x 978 km, 66.8° (Epoch: 01 March)

Event Time Altitude Azimuth Distance (km) Brightness Sun altitude
Rises 21:22:54 0° 271° (W) 3,678 11.6 -45.7°
Reaches altitude 10° 21:26:13 10° 288° (WNW) 2,728 10.9 -46.1°
Enters shadow 21:28:32 17° 307° (NW) 2,245 10.3 -46.5°
